Time,TemperatureF,DewpointF,PressureIn,WindDirection,WindDirectionDegrees,WindSpeedMPH,WindSpeedGustMPH,Humidity,HourlyPrecipIn,Conditions,Clouds,dailyrainin,SolarRadiationWatts/m^2,SoftwareType,DateUTC
2013-03-27 00:00:00,38.0,29.0,-100.00,NNE,28,0.0,-999.0,69,-99.99,,,-99.99,0.010000,,2013-03-27 05:00:00,
2013-03-27 00:52:00,38.0,29.0,-100.00,NNE,28,0.0,-999.0,69,-99.99,,,-99.99,0.010000,,2013-03-27 05:52:00,
2013-03-27 03:00:00,33.0,30.0,-100.00,North,357,0.0,-999.0,87,-99.99,,,-99.99,0.000000,,2013-03-27 08:00:00,
2013-03-27 03:52:00,33.0,30.0,-100.00,North,357,0.0,-999.0,87,-99.99,,,-99.99,0.000000,,2013-03-27 08:52:00,
2013-03-27 04:00:00,32.0,29.0,-100.00,North,4,0.0,-999.0,91,-99.99,,,-99.99,0.000000,,2013-03-27 09:00:00,
2013-03-27 04:52:00,32.0,29.0,-100.00,North,4,0.0,-999.0,91,-99.99,,,-99.99,0.000000,,2013-03-27 09:52:00,
2013-03-27 05:00:00,30.0,29.0,-100.00,NNE,18,0.0,-999.0,93,-99.99,,,-99.99,0.010000,,2013-03-27 10:00:00,
2013-03-27 05:53:00,30.0,29.0,-100.00,NNE,18,0.0,-999.0,93,-99.99,,,-99.99,0.010000,,2013-03-27 10:53:00,
2013-03-27 06:00:00,29.0,28.0,-100.00,ENE,74,0.0,-999.0,94,-99.99,,,-99.99,0.000000,,2013-03-27 11:00:00,
2013-03-27 06:53:00,29.0,28.0,-100.00,ENE,74,0.0,-999.0,94,-99.99,,,-99.99,0.000000,,2013-03-27 11:53:00,
2013-03-27 07:00:00,29.0,28.0,-100.00,North,0,0.0,-999.0,95,-99.99,,,-99.99,1.710000,,2013-03-27 12:00:00,
2013-03-27 07:52:00,29.0,28.0,-100.00,North,0,0.0,-999.0,95,-99.99,,,-99.99,1.710000,,2013-03-27 12:52:00,
2013-03-27 08:00:00,37.0,35.0,-100.00,NNE,21,0.0,-999.0,94,-99.99,,,-99.99,89.400002,,2013-03-27 13:00:00,
2013-03-27 08:53:00,37.0,35.0,-100.00,NNE,21,0.0,-999.0,94,-99.99,,,-99.99,89.400002,,2013-03-27 13:53:00,
2013-03-27 09:00:00,44.0,28.0,-100.00,NE,43,1.0,-999.0,52,-99.99,,,-99.99,312.929993,,2013-03-27 14:00:00,
2013-03-27 09:52:00,44.0,28.0,-100.00,NE,43,1.0,-999.0,52,-99.99,,,-99.99,312.929993,,2013-03-27 14:52:00,
2013-03-27 10:00:00,49.0,27.0,-100.00,ENE,64,3.0,-999.0,42,-99.99,,,-99.99,509.109985,,2013-03-27 15:00:00,
2013-03-27 10:52:00,49.0,27.0,-100.00,ENE,64,3.0,-999.0,42,-99.99,,,-99.99,509.109985,,2013-03-27 15:52:00,
2013-03-27 11:00:00,51.0,27.0,-100.00,East,83,2.0,-999.0,39,-99.99,,,-99.99,675.450012,,2013-03-27 16:00:00,
2013-03-27 11:52:00,51.0,27.0,-100.00,East,83,2.0,-999.0,39,-99.99,,,-99.99,675.450012,,2013-03-27 16:52:00,
2013-03-27 12:00:00,55.0,26.0,-100.00,NNE,14,2.0,-999.0,32,-99.99,,,-99.99,788.500000,,2013-03-27 17:00:00,
2013-03-27 12:52:00,55.0,26.0,-100.00,NNE,14,2.0,-999.0,32,-99.99,,,-99.99,788.500000,,2013-03-27 17:52:00,
2013-03-27 14:00:00,56.0,31.0,-100.00,South,184,5.0,-999.0,38,-99.99,,,-99.99,848.349976,,2013-03-27 19:00:00,
2013-03-27 14:52:00,56.0,31.0,-100.00,South,184,5.0,-999.0,38,-99.99,,,-99.99,848.349976,,2013-03-27 19:52:00,
2013-03-27 15:00:00,56.0,32.0,-100.00,SW,226,7.0,-999.0,40,-99.99,,,-99.99,783.750000,,2013-03-27 20:00:00,
2013-03-27 15:52:00,56.0,32.0,-100.00,SW,226,7.0,-999.0,40,-99.99,,,-99.99,783.750000,,2013-03-27 20:52:00,
2013-03-27 16:00:00,57.0,33.0,-100.00,SSW,211,8.0,-999.0,41,-99.99,,,-99.99,664.429993,,2013-03-27 21:00:00,
2013-03-27 16:52:00,57.0,33.0,-100.00,SSW,211,8.0,-999.0,41,-99.99,,,-99.99,664.429993,,2013-03-27 21:52:00,
2013-03-27 17:00:00,57.0,35.0,-100.00,SW,222,6.0,-999.0,43,-99.99,,,-99.99,499.510010,,2013-03-27 22:00:00,
2013-03-27 17:53:00,57.0,35.0,-100.00,SW,222,6.0,-999.0,43,-99.99,,,-99.99,499.510010,,2013-03-27 22:53:00,
2013-03-27 18:00:00,54.0,36.0,-100.00,SW,224,7.0,-999.0,50,-99.99,,,-99.99,299.630005,,2013-03-27 23:00:00,
2013-03-27 18:52:00,54.0,36.0,-100.00,SW,224,7.0,-999.0,50,-99.99,,,-99.99,299.630005,,2013-03-27 23:52:00,
2013-03-27 19:00:00,51.0,38.0,-100.00,SW,226,6.0,-999.0,61,-99.99,,,-99.99,94.150002,,2013-03-28 00:00:00,
2013-03-27 19:52:00,51.0,38.0,-100.00,SW,226,6.0,-999.0,61,-99.99,,,-99.99,94.150002,,2013-03-28 00:52:00,
2013-03-27 20:00:00,45.0,39.0,-100.00,SW,227,2.0,-999.0,77,-99.99,,,-99.99,1.640000,,2013-03-28 01:00:00,
2013-03-27 20:53:00,45.0,39.0,-100.00,SW,227,2.0,-999.0,77,-99.99,,,-99.99,1.640000,,2013-03-28 01:53:00,
2013-03-27 21:00:00,41.0,38.0,-100.00,NE,37,0.0,-999.0,88,-99.99,,,-99.99,0.000000,,2013-03-28 02:00:00,
2013-03-27 22:00:00,39.0,37.0,-100.00,North,8,1.0,-999.0,91,-99.99,,,-99.99,0.000000,,2013-03-28 03:00:00,
2013-03-27 22:53:00,39.0,37.0,-100.00,North,8,1.0,-999.0,91,-99.99,,,-99.99,0.000000,,2013-03-28 03:53:00,